Location: Brede
(50.9167°N, 0.6000°E)
Time: 03:31:45
(UTC+00:00)

Cosmos 1758 Rocket - Pass Details

Date: 08 August 2020
Orbit: 603 x 635 km, 82.5° (Epoch: 27 September)

Event Time Altitude Azimuth Distance (km) Brightness Sun altitude
Rises 03:42:06 0° 348° (NNW) 2,871 7.3 -7.8°
Reaches altitude 10° 03:44:19 10° 347° (NNW) 1,962 6.5 -7.5°
Maximum altitude 03:48:39 76° 262° (W) 630 3.5 -7.0°
Drops below altitude 10° 03:52:57 10° 177° (S) 1,950 5.8 -6.4°
Sets 03:55:09 0° 176° (S) 2,852 6.7 -6.2°
